Regional Weather Roundup
Issued by NWS

Home | Current Version | Previous Version | Text Only | Print | Product List | Glossary Off
Versions: 1 2 3 4 5 6 7 8 9 10 11 12 13 14 15 16 17 18 19 20 21 22 23 24 25 26 27 28 29 30 31 32 33 34 35 36 37 38 39 40 41 42 43 44 45 46 47 48 49 50

000
ASUS43 KOAX 280702
RWRNE

WEATHER ROUNDUP FOR NEBRASKA
NATIONAL WEATHER SERVICE OMAHA NE
200 AM CDT SUN AUG 28 2016

NOTES: SATELLITE DATA IS BEING USED TO AUGMENT CLOUD COVER ABOVE
       12000 FEET.
       "FAIR" INDICATES FEW OR NO CLOUDS BELOW 12,000 FEET WITH NO
       SIGNIFICANT WEATHER AND/OR OBSTRUCTIONS TO VISIBILITY.

  * THESE STATIONS DO NOT REPORT WEATHER SUCH AS RAIN...SNOW OR FOG.

NEZ001>004-019>022-054>056-280800-
NEBRASKA PANHANDLE

CITY           SKY/WX    TMP DP  RH WIND       PRES   REMARKS
SCOTTSBLUFF    CLEAR     62  54  74 E8        30.05R
ALLIANCE       CLEAR     59  57  93 SE7       30.04R
CHADRON        CLEAR     71  55  56 S15G26    29.95S
SIDNEY         CLEAR     59  56  89 S7        30.09S
$$

NEZ057>060-069>072-079>082-280800-
SOUTHWEST NEBRASKA

CITY           SKY/WX    TMP DP  RH WIND       PRES   REMARKS
NORTH PLATTE   CLEAR     64  63  96 E7        30.05S
IMPERIAL       CLEAR     63  61  93 SE6       30.06S
LEXINGTON      CLEAR     67  64  90 SE6       30.06S
MCCOOK         CLEAR     66  63  90 E5        30.04S
OGALLALA       CLEAR     68  63  83 S6        30.04F
$$

NEZ005>010-023>029-035>040-094-280800-
NORTH CENTRAL NEBRASKA

CITY           SKY/WX    TMP DP  RH WIND       PRES   REMARKS
VALENTINE      CLEAR     68  62  81 S10       30.00S
AINSWORTH      CLEAR     67  64  91 S8        30.03S
BROKEN BOW     CLEAR     68  65  90 S8        30.05F
O`NEILL        CLEAR     66  63  90 S6        30.05S
ORD            CLEAR     66  61  84 E3        30.04S
THEDFORD       PTCLDY    70  65  83 S12       30.04F
$$

NEZ041-046>049-061>064-073>077-083>087-280800-
SOUTH CENTRAL NEBRASKA

CITY           SKY/WX    TMP DP  RH WIND       PRES   REMARKS
GRAND ISLAND   PTCLDY    70  66  87 S7        30.06S
AURORA         PTCLDY    66  66 100 SE5       30.06S
HASTINGS       PTCLDY    70  66  87 SE7       30.06F
HEBRON         PTCLDY    66  65  96 CALM      30.05S
HOLDREGE       CLEAR     67  64  93 SE6       30.05F
KEARNEY *      CLOUDY    68  64  88 SE6       30.05S
YORK           CLOUDY    66  64  94 CALM      30.06F
$$

NEZ011>018-030>034-042>045-280800-
NORTHEAST NEBRASKA

CITY           SKY/WX    TMP DP  RH WIND       PRES   REMARKS
NORFOLK        CLEAR     66  62  87 SE8       30.05S
ALBION         CLEAR     65  62  90 SE3       30.06S
BLAIR          PTCLDY    69  67  92 SE5       30.07S
FREMONT        CLOUDY    68  67  96 SE5       30.06S
TEKAMAH        FOG       62  61  96 CALM      30.06R VSB 1/2
WAYNE          CLEAR     65  64  96 CALM      30.06S
$$

NEZ050>053-065>068-078-088>093-280800-
SOUTHEAST NEBRASKA

CITY           SKY/WX    TMP DP  RH WIND       PRES   REMARKS
LINCOLN        PTCLDY    65  63  93 N6        30.06F
OMAHA EPPLEY   PTCLDY    71  66  84 S3        30.07R
BEATRICE       PTCLDY    67  66  94 NE5       30.06S
FALLS CITY     PTCLDY    69  68  96 E5        30.05S
NEBRASKA CITY  CLOUDY    71  69  93 SE3       30.07F
PLATTSMOUTH    PTCLDY    68  68  98 SE6       30.07S
$$

NEZ044-045-051>053-067-280800-
OMAHA AREA

CITY           SKY/WX    TMP DP  RH WIND       PRES   REMARKS
OMAHA EPPLEY   PTCLDY    71  66  84 S3        30.07R
BLAIR          PTCLDY    69  67  92 SE5       30.07S
FREMONT        CLOUDY    68  67  96 SE5       30.06S
MILLARD        PTCLDY    69  67  94 CALM      30.06S
OFFUTT AFB     PTCLDY    64  64 100 E2        30.06S
PLATTSMOUTH    PTCLDY    68  68  98 SE6       30.07S
WAHOO          FAIR      64  62  96 SE3       30.06F FOG
$$




USA.gov is the U.S. government's official web portal to all federal, state and local government web resources and services.